Home   Weather   Tunis   Past weeks
Flag for Tunisia

Past Weather in Tunis, Tunisia — Yesterday and Last 2 Weeks

Now
70 °F

Scattered clouds.


Feels Like: 70 °F
Forecast: 77 / 57 °F
Wind: 6 mph from North

Location: Tunis-Carthage

Current Time: May 22, 2019 at 10:02:56 am

Latest Report: May 22, 2019 at 9:30 am


Visibility: N/A

Pressure: 30.04 "Hg

Humidity: 57%

Dew Point: 54 °F

Location of TunisLocation

Past Weather in Tunis — Graph

°F

Tunis Temperature Yesterday

Maximum temperature yesterday: 81 °F (at 12:30 pm)
Minimum temperature yesterday: 57 °F (at 3:30 am)
Average temperature yesterday: 70 °F

High & Low Weather Summary for the Past Weeks

 TemperatureHumidityPressure
High86 °F (May 9, 1:30 pm)94% (May 8, 3:30 am)30.15 "Hg (May 8, 3:30 am)
Low50 °F (May 8, 2:00 am)23% (May 9, 10:30 am)29.62 "Hg (May 17, 2:00 pm)
Average66 °F60%29.92 "Hg
* Reported May 7 8:00 am — May 22 8:30 am, Tunis. Weather by CustomWeather, © 2019

Note: Actual official high and low records may vary slightly from our data, if they occured in-between our weather recording intervals... More about our weather records

Advertising

Tunis Weather History for the Previous 24 Hours

Scroll right to see more
 ConditionsComfort  
Time TempWeatherWind HumidityBarometerVisibility
8:30 am
Wed, May 22
70 °FScattered clouds.3 mph57%30.04 "HgN/A
8:00 am70 °FScattered clouds.3 mph57%30.04 "HgN/A
7:30 am68 °FScattered clouds.7 mph60%30.04 "HgN/A
7:00 am68 °FScattered clouds.6 mph60%30.04 "HgN/A
6:30 am66 °FScattered clouds.2 mph64%30.04 "HgN/A
6:00 am66 °FScattered clouds.3 mph64%30.04 "HgN/A
5:30 am66 °FScattered clouds.5 mph64%30.01 "HgN/A
4:30 am66 °FPassing clouds.6 mph60%30.01 "HgN/A
4:00 am66 °FPassing clouds.7 mph60%30.01 "HgN/A
3:30 am66 °FPassing clouds.5 mph64%30.01 "HgN/A
3:00 am66 °FPassing clouds.6 mph64%30.01 "HgN/A
2:30 am66 °FPassing clouds.8 mph64%30.04 "HgN/A
2:00 am66 °FPassing clouds.2 mph64%30.01 "HgN/A
1:30 am66 °FPassing clouds.5 mph64%30.01 "HgN/A
1:00 am66 °FPassing clouds.8 mph64%30.01 "Hg5 mi
12:30 am66 °FPassing clouds.8 mph64%30.01 "Hg5 mi
12:00 am66 °FPassing clouds.3 mph64%30.01 "Hg5 mi
11:30 pm
Tue, May 21
66 °FPassing clouds.8 mph68%30.04 "Hg5 mi
11:00 pm66 °FPassing clouds.6 mph68%30.07 "Hg5 mi
10:30 pm68 °FPassing clouds.9 mph60%30.07 "Hg5 mi
10:00 pm68 °FPassing clouds.7 mph60%30.07 "Hg5 mi
9:30 pm68 °FPassing clouds.8 mph56%30.04 "Hg5 mi
9:00 pm68 °FPassing clouds.5 mph64%30.04 "Hg5 mi
8:30 pm68 °FPassing clouds.7 mph64%30.04 "Hg5 mi
8:00 pm68 °FLight rain. Passing clouds.7 mph69%30.01 "Hg5 mi
7:30 pm70 °FPassing clouds.12 mph69%30.01 "Hg5 mi
7:00 pm72 °FLight rain. Scattered clouds.8 mph65%29.98 "Hg5 mi
6:30 pm72 °FLight rain. Scattered clouds.12 mph65%29.98 "Hg5 mi
6:00 pm73 °FScattered clouds.3 mph57%29.98 "HgN/A
5:30 pm75 °FScattered clouds.10 mph47%29.98 "HgN/A
5:00 pm77 °FScattered clouds.8 mph44%29.95 "HgN/A
4:30 pm79 °FScattered clouds.8 mph42%29.95 "HgN/A
4:00 pm79 °FScattered clouds.12 mph37%29.95 "HgN/A
3:30 pm81 °FScattered clouds.12 mph37%29.95 "HgN/A
3:00 pm79 °FScattered clouds.10 mph30%29.95 "HgN/A
2:30 pm81 °FScattered clouds.9 mph30%29.95 "HgN/A
2:00 pm81 °FPassing clouds.9 mph30%29.98 "HgN/A
1:30 pm81 °FPassing clouds.8 mph32%29.98 "HgN/A
1:00 pm79 °FPassing clouds.10 mph34%29.98 "HgN/A
12:30 pm81 °FPassing clouds.8 mph34%30.01 "HgN/A
12:00 pm79 °FPassing clouds.7 mph34%30.01 "HgN/A
11:30 am79 °FPassing clouds.8 mph34%30.01 "HgN/A
11:00 am77 °FSunny.6 mph39%30.01 "Hg10 mi
10:30 am75 °FPassing clouds.8 mph41%30.01 "HgN/A
10:00 am73 °FPassing clouds.8 mph44%30.01 "HgN/A
Weather by CustomWeather, © 2019

See weather overview